When you browse on this site, cookies collect data to enhance your experience and personalize the content and advertising you see.
Visit our Privacy Policy to learn more. By continuing to use the site, you agree to this use of cookies and data.
  • In Hungary
  • List of Countries
  • For 7 days
  • Water Temperature
  • Satellite Maps
  • Weather Map
  • News
  • Weather Widgets
  • user-avatar
    Login

    Hourly Weather Sulislaw

    Today, 16 January, Wednesday

    Time Temperature Precipitation Wind Pressure Humidity
    00:00 +1°C° 0.3 mm 8 mps 736 mmHg 83%
    01:00 +1°C° 0.3 mm 8 mps 736 mmHg 83%
    02:00 +1°C° 0.6 mm 8 mps 736 mmHg 84%
    03:00 +1°C° 0.6 mm 8 mps 737 mmHg 84%
    04:00 +2°C° 0.6 mm 7 mps 737 mmHg 85%
    05:00 +2°C° 0.3 mm 7 mps 737 mmHg 85%
    06:00 +2°C° 0.3 mm 7 mps 737 mmHg 86%
    07:00 +2°C° 0.3 mm 7 mps 737 mmHg 86%
    08:00 +2°C° 0.1 mm 6 mps 738 mmHg 86%
    09:00 +2°C° 0.1 mm 6 mps 738 mmHg 85%
    10:00 +2°C° 0.1 mm 5 mps 739 mmHg 85%
    11:00 +3°C° 0 mm 5 mps 739 mmHg 82%
    12:00 +3°C° 0 mm 5 mps 739 mmHg 79%
    13:00 +5°C° 0 mm 5 mps 739 mmHg 77%
    14:00 +3°C° 0 mm 5 mps 738 mmHg 78%
    15:00 +3°C° 0 mm 5 mps 738 mmHg 80%
    16:00 +2°C° 0 mm 5 mps 738 mmHg 82%
    17:00 +2°C° 0 mm 5 mps 738 mmHg 83%
    18:00 +1°C° 0 mm 5 mps 738 mmHg 83%
    19:00 +1°C° 0 mm 5 mps 738 mmHg 84%
    20:00 +1°C° 0 mm 5 mps 737 mmHg 83%
    21:00 +1°C° 0 mm 5 mps 737 mmHg 83%
    22:00 0°C° 0 mm 4 mps 737 mmHg 83%
    23:00 +1°C° 0 mm 4 mps 736 mmHg 79%

    Tomorrow, 17 January, Thursday

    Time Temperature Precipitation Wind Pressure Humidity
    00:00 +1°C° 0 mm 5 mps 736 mmHg 76%
    01:00 +1°C° 0 mm 5 mps 736 mmHg 72%
    02:00 +1°C° 0 mm 6 mps 735 mmHg 69%
    03:00 0°C° 0 mm 7 mps 735 mmHg 66%
    04:00 0°C° 0 mm 7 mps 734 mmHg 63%
    05:00 0°C° 0 mm 7 mps 734 mmHg 64%
    06:00 0°C° 0 mm 8 mps 734 mmHg 66%
    07:00 +1°C° 0 mm 8 mps 734 mmHg 68%
    08:00 +2°C° 0 mm 7 mps 734 mmHg 70%
    09:00 +2°C° 0 mm 7 mps 734 mmHg 72%
    10:00 +3°C° 0 mm 6 mps 735 mmHg 74%
    11:00 +3°C° 0 mm 6 mps 735 mmHg 73%
    12:00 +4°C° 0 mm 6 mps 734 mmHg 72%
    13:00 +5°C° 0 mm 6 mps 734 mmHg 71%
    14:00 +4°C° 0 mm 6 mps 734 mmHg 73%
    15:00 +5°C° 0 mm 5 mps 734 mmHg 76%
    16:00 +3°C° 0 mm 5 mps 733 mmHg 79%
    17:00 +3°C° 0 mm 6 mps 733 mmHg 77%
    18:00 +3°C° 0 mm 7 mps 733 mmHg 75%
    19:00 +2°C° 0 mm 8 mps 733 mmHg 74%
    20:00 +1°C° 0.1 mm 8 mps 734 mmHg 73%
    21:00 +1°C° 0.1 mm 8 mps 735 mmHg 72%
    22:00 +1°C° 0.1 mm 8 mps 735 mmHg 72%
    23:00 0°C° 0.2 mm 7 mps 736 mmHg 73%

    Day after tomorrow, 18 January, Friday

    Time Temperature Precipitation Wind Pressure Humidity
    00:00 0°C° 0.2 mm 5 mps 736 mmHg 73%
    01:00 -1°C° 0.2 mm 4 mps 737 mmHg 74%
    02:00 -1°C° 0 mm 5 mps 737 mmHg 75%
    03:00 -2°C° 0 mm 5 mps 738 mmHg 75%
    04:00 -2°C° 0 mm 5 mps 738 mmHg 76%
    05:00 -2°C° 0 mm 5 mps 739 mmHg 76%
    06:00 -4°C° 0 mm 5 mps 740 mmHg 77%
    07:00 -4°C° 0 mm 5 mps 741 mmHg 77%
    08:00 -4°C° 0 mm 6 mps 741 mmHg 74%
    09:00 -3°C° 0 mm 6 mps 742 mmHg 70%
    10:00 -3°C° 0 mm 7 mps 743 mmHg 67%
    11:00 -3°C° 0 mm 6 mps 744 mmHg 64%
    12:00 -2°C° 0 mm 6 mps 744 mmHg 60%
    13:00 -2°C° 0 mm 6 mps 745 mmHg 56%
    14:00 -2°C° 0 mm 5 mps 745 mmHg 60%
    15:00 -1°C° 0 mm 3 mps 745 mmHg 64%
    16:00 -2°C° 0 mm 2 mps 745 mmHg 67%
    17:00 -2°C° 0 mm 2 mps 746 mmHg 68%
    18:00 -3°C° 0 mm 2 mps 746 mmHg 69%
    19:00 -3°C° 0 mm 2 mps 746 mmHg 70%
    20:00 -3°C° 0 mm 2 mps 746 mmHg 70%
    21:00 -3°C° 0 mm 2 mps 747 mmHg 70%
    22:00 -3°C° 0 mm 2 mps 747 mmHg 70%
    23:00 -3°C° 0 mm 2 mps 747 mmHg 69%

    19 January, Saturday

    Time Temperature Precipitation Wind Pressure Humidity
    00:00 -3°C° 0 mm 2 mps 747 mmHg 69%
    01:00 -3°C° 0 mm 2 mps 747 mmHg 68%
    02:00 -1°C° 0 mm 1 mps 746 mmHg 67%
    03:00 -1°C° 0 mm 1 mps 746 mmHg 66%
    04:00 -1°C° 0 mm 1 mps 746 mmHg 65%
    05:00 -1°C° 0 mm 1 mps 746 mmHg 64%
    06:00 -2°C° 0 mm 1 mps 746 mmHg 63%
    07:00 -2°C° 0 mm 1 mps 746 mmHg 62%
    08:00 -1°C° 0 mm 1 mps 746 mmHg 58%
    09:00 0°C° 0 mm 1 mps 746 mmHg 54%
    10:00 0°C° 0 mm 1 mps 746 mmHg 50%
    11:00 +1°C° 0 mm 1 mps 746 mmHg 47%
    12:00 +1°C° 0 mm 0 mps 746 mmHg 43%
    13:00 +1°C° 0 mm 0 mps 745 mmHg 40%
    14:00 +1°C° 0 mm 0 mps 745 mmHg 44%
    15:00 +1°C° 0 mm 1 mps 745 mmHg 48%
    16:00 0°C° 0 mm 1 mps 744 mmHg 52%
    17:00 0°C° 0 mm 1 mps 745 mmHg 55%
    18:00 -1°C° 0 mm 1 mps 745 mmHg 58%
    19:00 -1°C° 0 mm 1 mps 745 mmHg 60%
    20:00 -1°C° 0 mm 1 mps 745 mmHg 61%
    21:00 -3°C° 0 mm 0 mps 745 mmHg 62%
    22:00 -3°C° 0 mm 0 mps 745 mmHg 63%
    23:00 -3°C° 0 mm 0 mps 745 mmHg 64%

    20 January, Sunday

    Time Temperature Precipitation Wind Pressure Humidity
    00:00 -3°C° 0 mm 0 mps 745 mmHg 64%
    01:00 -3°C° 0 mm 0 mps 745 mmHg 65%
    02:00 -3°C° 0 mm 0 mps 745 mmHg 65%
    03:00 -3°C° 0 mm 0 mps 745 mmHg 65%
    04:00 -4°C° 0 mm 0 mps 745 mmHg 66%
    05:00 -3°C° 0 mm 1 mps 745 mmHg 66%
    06:00 -3°C° 0 mm 1 mps 745 mmHg 66%
    07:00 -3°C° 0 mm 1 mps 746 mmHg 66%
    08:00 -2°C° 0 mm 1 mps 746 mmHg 63%
    09:00 -2°C° 0 mm 1 mps 747 mmHg 59%
    10:00 -1°C° 0 mm 1 mps 747 mmHg 56%
    11:00 -2°C° 0 mm 2 mps 747 mmHg 57%
    12:00 -2°C° 0 mm 2 mps 747 mmHg 58%
    13:00 -1°C° 0 mm 2 mps 748 mmHg 60%
    14:00 -2°C° 0 mm 2 mps 748 mmHg 66%
    15:00 -2°C° 0 mm 2 mps 748 mmHg 72%
    16:00 -3°C° 0 mm 2 mps 748 mmHg 79%
    17:00 -3°C° 0 mm 2 mps 749 mmHg 82%
    18:00 -4°C° 0 mm 2 mps 749 mmHg 86%
    19:00 -4°C° 0 mm 2 mps 750 mmHg 89%
    20:00 -4°C° 0 mm 2 mps 750 mmHg 89%
    21:00 -4°C° 0 mm 2 mps 751 mmHg 89%
    22:00 -5°C° 0 mm 2 mps 751 mmHg 89%
    23:00 -5°C° 0 mm 2 mps 751 mmHg 87%

    21 January, Monday

    Time Temperature Precipitation Wind Pressure Humidity
    00:00 -5°C° 0 mm 2 mps 752 mmHg 86%
    01:00 -5°C° 0 mm 2 mps 752 mmHg 85%
    02:00 -5°C° 0 mm 2 mps 752 mmHg 85%
    03:00 -5°C° 0 mm 2 mps 752 mmHg 84%
    04:00 -4°C° 0 mm 1 mps 752 mmHg 83%
    05:00 -4°C° 0 mm 1 mps 753 mmHg 84%
    06:00 -4°C° 0 mm 1 mps 753 mmHg 84%
    07:00 -4°C° 0 mm 1 mps 753 mmHg 84%
    08:00 -4°C° 0 mm 0 mps 753 mmHg 80%
    09:00 -4°C° 0 mm 0 mps 754 mmHg 75%
    10:00 -3°C° 0 mm 0 mps 754 mmHg 71%
    11:00 -2°C° 0 mm 1 mps 754 mmHg 65%
    12:00 -1°C° 0 mm 1 mps 754 mmHg 59%
    13:00 0°C° 0 mm 1 mps 753 mmHg 53%
    14:00 -3°C° 0 mm 2 mps 753 mmHg 56%
    15:00 -3°C° 0 mm 2 mps 753 mmHg 58%
    16:00 -4°C° 0 mm 2 mps 752 mmHg 61%
    17:00 -4°C° 0 mm 2 mps 752 mmHg 64%
    18:00 -5°C° 0 mm 2 mps 752 mmHg 67%
    19:00 -6°C° 0 mm 3 mps 752 mmHg 70%
    20:00 -6°C° 0 mm 3 mps 752 mmHg 71%
    21:00 -6°C° 0 mm 3 mps 752 mmHg 72%
    22:00 -6°C° 0 mm 3 mps 751 mmHg 72%
    23:00 -6°C° 0 mm 3 mps 751 mmHg 73%
    Show more